This is the latest recevied weather packets stored in our database for station/object KD9JB-1. If no packets are shown the sender has not sent any weather packets the latest 10 day(s).
| Time | Temp. | Humidity | Pressure | Rain* | Wind** | Luminosity | Snow |
|---|---|---|---|---|---|---|---|
| 1777879299 | 12.78° C | 70% | 1010.2 hPa | 0 mm | - | - | - |
| 1777878999 | 12.78° C | 70% | 1010.2 hPa | 0 mm | - | - | - |
| 1777878699 | 12.78° C | 70% | 1010.2 hPa | 0 mm | - | - | - |
| 1777878399 | 12.78° C | 70% | 1010.3 hPa | 0 mm | - | - | - |
| 1777878099 | 12.78° C | 70% | 1010.4 hPa | 0 mm | - | - | - |
| 1777877799 | 12.78° C | 70% | 1010.5 hPa | 0 mm | - | - | - |
| 1777877499 | 13.33° C | 69% | 1010.5 hPa | 0 mm | - | - | - |
| 1777877199 | 13.33° C | 70% | 1010.4 hPa | 0 mm | - | - | - |
| 1777876899 | 13.33° C | 70% | 1010.4 hPa | 0 mm | - | - | - |
| 1777876599 | 13.33° C | 70% | 1010.5 hPa | 0 mm | - | - | - |
| 1777876299 | 13.33° C | 70% | 1010.6 hPa | 0 mm | - | - | - |
| 1777875999 | 12.78° C | 72% | 1010.8 hPa | 0 mm | - | - | - |
| 1777875699 | 12.78° C | 73% | 1010.8 hPa | 0 mm | - | - | - |
| 1777875399 | 12.78° C | 74% | 1011 hPa | 0 mm | - | - | - |
| 1777875099 | 12.78° C | 71% | 1010.8 hPa | 0 mm | - | - | - |
| 1777874799 | 12.78° C | 74% | 1011 hPa | 0 mm | - | - | - |
| 1777874499 | 12.22° C | 76% | 1011.1 hPa | 0 mm | - | - | - |
| 1777874199 | 12.22° C | 78% | 1011.1 hPa | 0 mm | - | - | - |
| 1777873899 | 12.22° C | 79% | 1011.2 hPa | 0 mm | - | - | - |
| 1777873599 | 11.67° C | 80% | 1011.3 hPa | 0.76 mm | - | - | - |
| 1777873299 | 11.67° C | 81% | 1011.4 hPa | 1.02 mm | - | - | - |
| 1777872999 | 11.67° C | 83% | 1011.4 hPa | 1.02 mm | - | - | - |
| 1777872699 | 11.67° C | 83% | 1011.4 hPa | 1.02 mm | - | - | - |
| 1777872399 | 12.22° C | 81% | 1011.5 hPa | 1.02 mm | - | - | - |
| 1777872099 | 12.22° C | 80% | 1011.6 hPa | 1.02 mm | - | - | - |
* Rain latest hour (hover to see other rain measurements)
** Current wind speed in m/s (hover to see current wind gust speed)